Lid_Strength_Index
-1 -1 -1 -1 -1 -1 -1 -1 -1 -1 -1 -0 1 0 1 2 2 3 2 2 -0 -2 -2 -3 -2 -2 -2 -2 -2 -2 -1 -0 -0 0 -0 -0 0 1 0 0 0 0 -0
-0 -0 -0 -0 0 -0 1 1 0 -0 0 0 1 2 3 3 3 4 4 4 2 1 -1 -2 -3 -3 -2 -2 -2 -2 -1 -1 -0 -0 -0 -1 -0 0 0 0 1 1 1
1 1 1 1 1 2 2 2 1 0 1 2 3 3 4 4 5 5 5 6 6 4 2 -0 -1 -2 -2 -2 -2 -2 -2 -1 -1 -1 -1 -1 -1 -0 -0 0 1 1 1
3 2 3 3 3 4 4 3 2 1 2 2 4 4 4 5 6 7 7 8 8 8 6 4 2 -0 -1 -2 -2 -2 -2 -1 -1 -1 -1 -1 -1 -1 -0 -0 0 1 1
5 5 5 5 5 5 5 3 3 1 2 3 4 5 5 6 7 8 8 9 9 9 9 7 5 2 0 -1 -2 -2 -2 -1 -0 0 0 -0 -0 -0 0 0 0 0 0
6 6 6 7 6 7 7 5 3 3 3 4 5 6 7 7 7 8 9 9 10 10 9 9 8 7 3 1 0 -0 -1 -0 0 1 1 0 0 0 0 0 0 0 0
7 7 8 8 8 8 9 7 5 4 5 4 5 7 8 9 9 9 8 9 10 10 10 10 9 8 8 4 2 2 1 1 1 1 1 1 1 1 1 1 0 0 0
9 9 9 9 9 9 10 9 8 5 6 7 4 4 6 7 9 9 9 9 10 10 11 11 10 10 9 8 6 4 3 2 2 2 1 1 1 1 1 1 1 1 1
10 9 10 10 10 10 11 10 9 7 7 7 7 4 6 6 6 8 10 10 10 11 11 11 12 11 11 10 8 6 5 3 3 2 2 2 2 1 1 2 1 1 1
11 11 10 10 10 11 11 11 11 10 9 10 8 8 6 5 5 6 9 10 10 11 11 12 12 12 12 11 9 7 5 3 3 3 3 3 3 2 2 2 2 2 2
12 11 11 11 11 11 12 12 12 11 11 11 10 10 8 7 7 5 6 10 11 11 11 12 12 12 12 11 8 6 4 4 4 4 4 3 3 3 2 2 2 2 2
13 12 12 11 12 12 13 13 12 12 12 12 12 11 10 10 10 9 8 9 9 11 11 12 12 12 12 10 9 7 5 4 4 4 5 4 4 4 3 3 3 3 3
13 13 12 12 13 13 13 13 13 13 13 13 13 12 11 11 11 10 10 10 9 11 12 12 12 12 11 10 9 9 7 5 5 5 5 5 5 5 5 4 4 4 4
13 13 13 13 13 13 14 13 13 13 13 13 12 12 12 12 12 12 11 11 11 10 11 12 12 11 10 10 11 11 10 7 5 6 6 6 6 6 6 6 6 6 6
13 13 13 13 14 14 13 13 13 14 13 12 12 12 13 13 12 13 12 12 11 12 10 12 12 12 12 12 12 12 12 11 7 8 8 8 8 8 7 7 7 7 6
13 14 14 14 14 14 13 14 14 13 13 12 12 13 13 13 13 13 13 13 12 11 12 11 13 13 13 13 13 13 13 12 10 10 9 9 9 9 9 8 8 8 7
14 14 14 14 14 14 14 14 14 13 13 13 13 13 14 14 14 14 14 14 13 11 12 13 13 13 14 14 14 13 13 13 12 11 11 10 10 10 10 10 9 9 9
14 14 14 14 14 14 14 14 14 13 13 13 13 14 14 15 15 15 14 14 14 12 12 13 14 14 14 15 14 15 15 14 14 13 12 12 12 11 11 11 11 10 10
14 14 14 14 14 14 14 14 13 13 13 13 14 14 15 15 15 15 15 15 14 13 12 13 14 14 14 15 15 15 15 15 15 14 13 13 13 12 12 12 12 12 11
14 14 14 14 14 14 14 14 13 13 14 14 14 15 15 15 15 15 15 15 14 14 13 14 15 15 15 16 16 17 17 16 17 16 16 15 14 14 14 13 13 13 12
14 14 14 14 14 14 13 13 13 14 14 15 15 15 15 15 14 15 15 15 15 14 14 15 15 15 16 17 18 18 18 18 17 17 18 17 16 15 15 15 15 14 12
14 14 14 14 14 13 12 11 13 14 15 15 16 15 14 14 13 13 13 14 14 15 15 16 16 17 17 18 18 19 19 19 19 18 19 18 17 17 16 16 15 13 13
15 15 14 14 13 13 11 11 11 14 15 15 16 16 15 15 14 14 13 13 14 14 14 15 17 17 18 18 19 20 20 20 20 18 19 19 18 18 16 17 16 14 13
15 14 14 14 14 14 11 10 11 14 15 15 16 15 15 16 15 15 17 17 18 18 18 17 17 18 18 18 18 19 20 21 20 20 19 21 18 19 18 17 17 15 14
15 14 14 14 14 14 11 11 11 14 15 16 16 15 15 16 14 13 17 17 18 18 16 16 16 16 16 17 18 20 21 21 20 20 20 21 20 20 19 19 17 16 14
13 14 14 14 14 14 12 11 11 14 15 16 16 16 14 14 13 12 16 18 19 19 18 19 17 17 19 17 18 20 20 21 22 21 20 21 21 21 21 18 19 18 19